User: anonymous   Login
Location: Chiroubles
(46.1812°N, 4.6660°E)
Time: 05:31:06
(UTC+00:00)
Language:

Okean 1-7 - Orbit

View from above orbital plane
View from above orbital plane
View from above satellite
View from above satellite

Ground track
Ground track

The orbit data is extracted from the following two-line orbital elements,

1 23317U 94066A   20304.78115992  .00000257  00000-0  25415-4 0  9997
2 23317  82.5408  39.7410 0018353 297.8073  62.1284 14.87815851409032
Epoch (UTC): 30 October 2020 18:44:52
Eccentricity: 0.0018353
inclination: 82.5408°
perigee height: 592 km
apogee height: 617 km
right ascension of ascending node: 39.7410°
argument of perigee: 297.8073°
revolutions per day: 14.87815851
mean anomaly at epoch: 62.1284°
orbit number at epoch: 40903

The dashed part of the orbit path shows where the satellite is in the earth's shadow,  

DLR